DECAYED

H-2A R/B, 43067 (Decayed)

Orbit data source: Space-Track

H-2A R/B, 43067 was space debris in LEO originally from a launch on Sat, 23 Dec 2017 UTC launched from the Tanegashima Space Center (TNSTA). Debris objects in space refer to the collection of defunct objects orbiting the Earth. Examples of debris include non-operational satellites, rocket bodies, and fragments generated from explosions, collisions, or faulty payload assembly.

Not visible in the next 10 days
Identifier
43067, 2017-082C
Orbit
Decayed
Country
Flag of JPJP / JPN
Related business
Manufacturer
MHI Tobishima
Mission
Decayed spacecraft
Bus & Motor
H-2A STAGE 2, Unknown motor
Mass
4,000 kg wet, 4,000 kg dry
Launch date (UTC)
2017-12-23 (8 years ago)
Launch vehicle
Unknown
Launch site
Tanegashima Space Center (TNSTA)
Object type
Payload
Rocket body
Debris
Shape & HBR
Cyl, 4.6 m
Radar Cross Section
35.186 m², Large (>1 m²)

Expand to show TLE details & history
Last TLE update: 5 months ago

TLE from 5 months ago
0 H-2A R/B
1 43067U 17082C   25156.53539484  .08897084  31588-5  29371-3 0  9997
2 43067  98.2983 174.6785 0012265 247.7726 272.9577 16.43597717412321
Epoch: 2025-06-05T12:50Z
TLE epoch observation values (Epoch: 2025-06-05T12:50:58.114Z)
Latitude
19.19821°
Longitude
-89.37194°
Altitude
158.563 km
Speed
7.813 km/s
True Right ascension
23h 50m 17s
True Declination
19° 04' 55"
Sunlit
Object was in daylight at epoch
Visualization orbit readout
Latitude
Unknown
Longitude
Unknown
Altitude
Unknown
Speed
Unknown
Apparent Right ascension
Unknown
Apparent Declination
Unknown
Sunlit
N/A
Visualization observer readout
Local Sidereal Time
05:35:46
Azimuth
Unknown
Elevation
Unknown
Doppler factor
Unknown
Orbital elements
Apogee altitude
161.106 km
Perigee altitude
145.085 km
Semi-major axis
6,531.232 km
Eccentricity
0.00123
Inclination
98.2983°
RAAN
174.6785°
Arg. of periapsis
247.7726°
True anomaly
272.81733°
Mean anomaly
272.9577°
Eccentric anomaly
272.88752°
Mean motion
4.11198 °/min
Orbital period
87.55 mins
BSTAR
0.00029371
Loading maneuver chart data...
Computing Atmospheric mass density...
Loading historical data...
Loading historical data...
Loading historical data...
Loading historical data...
Loading historical data...
Loading historical data...
Loading historical data...
Other satellites on launch #82 in the year 2017 (2017-12-23 UTC)

Documentation

Showing up to 5 results
|